CFG1RV EDDG-LEPA

Flight info

Callsign CFG1RV
Flight time N/A
Altitude 24000
Route DOMEG1W DOMEG N853 QATJA Y841 NVO/N0449F340 Y841 KENUM DCT ARCKY/N0452F360 DCT GESLO/N0450F350 DCT LIMGO DCT SUTAL DCT GTQ DCT POGOL DCT LASAT DCT MOROK DCT GILIR DCT GEVEA DCT INCUS DCT BALSI DCT RETNO DCT TUPOX DCT MTG DCT DIVKO DCT VATIR DCT PIVUS DCT BODEQ DCT VERSO L129 LUNIK
Aircraft A320/M-SDGHIJ1RWXY/LB1

Departure

Time 2026-05-04 16:33
Airport Münster Osnabrück Airport (EDDG)

Arrival

Time N/A
Airport Palma de Mallorca Airport (LEPA)
Time Latitude Longitude Altitude Speed Heading
2026-05-04 15:58 52.13170 7.69374 168 ft 0 kts 196°
2026-05-04 16:24 52.13194 7.69386 167 ft 4 kts 200°
2026-05-04 16:25 52.13241 7.69426 167 ft 4 kts 224°
2026-05-04 16:26 52.13254 7.69454 167 ft 0 kts 251°
2026-05-04 16:28 52.13363 7.69257 167 ft 17 kts 340°
2026-05-04 16:28 52.13332 7.68687 167 ft 23 kts 251°
2026-05-04 16:29 52.13424 7.68309 169 ft 23 kts 50°
2026-05-04 16:30 52.13611 7.69168 170 ft 30 kts 71°
2026-05-04 16:31 52.13748 7.69831 167 ft 29 kts 72°
2026-05-04 16:31 52.13768 7.69915 167 ft 24 kts 250°
2026-05-04 16:32 52.12976 7.66066 586 ft 165 kts 251°
2026-05-04 16:33 52.12229 7.62620 1966 ft 163 kts 250°
2026-05-04 16:33 52.11391 7.58696 2519 ft 206 kts 250°
2026-05-04 16:34 52.10180 7.53903 3187 ft 251 kts 228°
2026-05-04 16:34 52.08698 7.52383 3883 ft 259 kts 194°
2026-05-04 16:35 52.03241 7.51414 6470 ft 266 kts 187°
2026-05-04 16:35 51.97584 7.51671 8831 ft 279 kts 172°
2026-05-04 16:36 51.95679 7.52177 9600 ft 282 kts 172°
2026-05-04 16:36 51.91676 7.53237 10546 ft 310 kts 172°
2026-05-04 16:37 51.87147 7.54428 11226 ft 342 kts 172°
2026-05-04 16:37 51.84787 7.55057 11886 ft 346 kts 172°
2026-05-04 16:37 51.79975 7.56336 13222 ft 354 kts 171°
2026-05-04 16:38 51.75112 7.57618 14606 ft 356 kts 172°
2026-05-04 16:39 51.67731 7.57111 16410 ft 362 kts 198°
2026-05-04 16:39 51.62860 7.54628 17752 ft 368 kts 198°
2026-05-04 16:40 51.57933 7.52151 18835 ft 373 kts 198°
2026-05-04 16:40 51.52985 7.49676 19912 ft 377 kts 198°
2026-05-04 16:41 51.47939 7.47157 20960 ft 381 kts 198°
2026-05-04 16:41 51.40282 7.43270 22479 ft 388 kts 203°
2026-05-04 16:42 51.33962 7.35284 23807 ft 395 kts 232°
2026-05-04 16:43 51.30705 7.28248 23995 ft 392 kts 232°
2026-05-04 16:43 51.27458 7.21277 23998 ft 390 kts 232°
2026-05-04 16:43 51.25834 7.17804 23999 ft 390 kts 232°
2026-05-04 16:44 51.19320 7.03911 24001 ft 391 kts 232°
2026-05-04 16:45 51.16055 6.96962 24001 ft 391 kts 232°
2026-05-04 16:46 51.11008 6.86730 23994 ft 391 kts 223°
2026-05-04 16:46 51.06535 6.81936 23986 ft 390 kts 205°
2026-05-04 16:47 51.01654 6.78260 23986 ft 390 kts 205°
2026-05-04 16:47 50.96764 6.74562 23989 ft 390 kts 206°
2026-05-04 16:48 50.89373 6.68990 24040 ft 399 kts 205°
2026-05-04 16:48 50.86873 6.67024 24156 ft 408 kts 210°
2026-05-04 16:49 50.82478 6.61154 24401 ft 423 kts 230°
2026-05-04 16:49 50.79572 6.52899 24639 ft 439 kts 246°
2026-05-04 16:50 50.77299 6.43843 24895 ft 446 kts 246°
2026-05-04 16:50 50.74968 6.34774 25405 ft 445 kts 242°
2026-05-04 16:51 50.71277 6.27128 26023 ft 437 kts 219°
2026-05-04 16:51 50.68782 6.24401 26316 ft 436 kts 208°
2026-05-04 16:51 50.63021 6.21582 26941 ft 436 kts 190°
2026-05-04 16:52 50.57049 6.20071 27617 ft 433 kts 191°
2026-05-04 16:52 50.54118 6.19322 27970 ft 432 kts 191°
2026-05-04 16:53 50.48198 6.17818 28670 ft 429 kts 191°
2026-05-04 16:53 50.39452 6.15607 29911 ft 421 kts 191°
2026-05-04 16:54 50.36570 6.14881 30279 ft 419 kts 191°
2026-05-04 16:55 50.25367 6.10576 31544 ft 412 kts 201°
2026-05-04 16:55 50.20020 6.07476 32221 ft 408 kts 201°
2026-05-04 16:56 50.14707 6.04410 32799 ft 406 kts 200°
2026-05-04 16:56 50.06345 6.02716 33635 ft 410 kts 176°
2026-05-04 16:57 50.03527 6.03512 33882 ft 414 kts 168°
2026-05-04 16:57 49.99014 6.06107 34260 ft 417 kts 162°
2026-05-04 16:58 49.90925 6.11198 34842 ft 419 kts 162°
2026-05-04 16:58 49.88219 6.12894 35023 ft 419 kts 162°
2026-05-04 16:59 49.82799 6.16278 35377 ft 420 kts 162°
2026-05-04 17:00 49.71923 6.23058 35992 ft 422 kts 162°
2026-05-04 17:01 49.58342 6.31572 36001 ft 422 kts 161°
2026-05-04 17:02 49.47544 6.38594 35995 ft 420 kts 161°
2026-05-04 17:03 49.39491 6.43962 35990 ft 421 kts 160°
2026-05-04 17:03 49.31480 6.49492 35975 ft 421 kts 160°
2026-05-04 17:04 49.20764 6.56760 35983 ft 421 kts 160°
2026-05-04 17:05 49.10067 6.63956 35958 ft 421 kts 160°
2026-05-04 17:06 49.02001 6.69355 35972 ft 421 kts 161°
2026-05-04 17:07 48.96385 6.71432 35977 ft 413 kts 179°
2026-05-04 17:07 48.94486 6.71484 35980 ft 411 kts 184°
2026-05-04 17:07 48.87796 6.71178 35987 ft 412 kts 184°
2026-05-04 17:08 48.79187 6.70834 35993 ft 413 kts 184°
2026-05-04 17:09 48.73475 6.70625 35999 ft 413 kts 184°
2026-05-04 17:09 48.67721 6.70401 36002 ft 413 kts 184°
2026-05-04 17:10 48.53358 6.69849 36008 ft 413 kts 184°
2026-05-04 17:11 48.47605 6.69622 36007 ft 413 kts 184°
2026-05-04 17:12 48.38991 6.69292 36002 ft 413 kts 184°
2026-05-04 17:13 48.24647 6.68732 36014 ft 414 kts 184°
2026-05-04 17:14 48.13144 6.68301 36012 ft 414 kts 184°
2026-05-04 17:15 48.04507 6.67974 36016 ft 414 kts 184°
2026-05-04 17:16 47.92980 6.67534 36026 ft 414 kts 184°
2026-05-04 17:17 47.81490 6.67097 36016 ft 414 kts 184°
2026-05-04 17:18 47.69947 6.66661 36004 ft 415 kts 184°
2026-05-04 17:19 47.58419 6.66244 35993 ft 415 kts 184°
2026-05-04 17:20 47.46848 6.65813 35993 ft 416 kts 185°
2026-05-04 17:20 47.41186 6.64799 35996 ft 410 kts 199°
2026-05-04 17:20 47.38539 6.63247 35999 ft 408 kts 209°
2026-05-04 17:21 47.33974 6.58383 36004 ft 406 kts 220°
2026-05-04 17:21 47.29664 6.52965 36018 ft 406 kts 220°
2026-05-04 17:22 47.25349 6.47574 36019 ft 407 kts 220°
2026-05-04 17:23 47.16709 6.36797 36010 ft 407 kts 220°
2026-05-04 17:24 47.10228 6.28739 36015 ft 406 kts 220°
2026-05-04 17:24 47.02655 6.23476 36006 ft 412 kts 192°
2026-05-04 17:25 46.99792 6.23039 35995 ft 413 kts 188°
2026-05-04 17:26 46.88339 6.21509 36018 ft 414 kts 188°
2026-05-04 17:27 46.73962 6.19593 36028 ft 414 kts 189°
2026-05-04 17:28 46.62498 6.18066 36039 ft 415 kts 189°
2026-05-04 17:29 46.45270 6.15814 36051 ft 414 kts 189°
2026-05-04 17:31 46.30892 6.13924 36058 ft 414 kts 189°
2026-05-04 17:32 46.16668 6.11412 36051 ft 411 kts 193°
2026-05-04 17:33 46.05358 6.08728 36057 ft 412 kts 192°
2026-05-04 17:34 45.94044 6.06258 36054 ft 412 kts 192°
2026-05-04 17:35 45.79930 6.03146 36052 ft 411 kts 193°
2026-05-04 17:36 45.74263 6.01898 36053 ft 410 kts 193°
2026-05-04 17:36 45.68615 6.00661 36030 ft 409 kts 193°
2026-05-04 17:37 45.62978 5.99428 36030 ft 409 kts 193°
2026-05-04 17:37 45.57366 5.98195 36029 ft 410 kts 193°
2026-05-04 17:38 45.51732 5.96963 36032 ft 410 kts 193°
2026-05-04 17:38 45.46100 5.95679 36033 ft 408 kts 194°
2026-05-04 17:39 45.37787 5.93055 36035 ft 408 kts 197°
2026-05-04 17:39 45.32259 5.91230 36039 ft 407 kts 197°
2026-05-04 17:40 45.26753 5.89493 36039 ft 408 kts 196°
2026-05-04 17:40 45.21192 5.87778 36023 ft 408 kts 196°
2026-05-04 17:41 45.15644 5.86071 36022 ft 408 kts 196°
2026-05-04 17:41 45.10096 5.84357 36029 ft 408 kts 196°
2026-05-04 17:42 45.04547 5.82635 36027 ft 408 kts 196°
2026-05-04 17:42 44.99022 5.80924 36009 ft 409 kts 196°
2026-05-04 17:43 44.93454 5.79208 36006 ft 408 kts 196°
2026-05-04 17:43 44.88832 5.77788 36004 ft 408 kts 196°
2026-05-04 17:44 44.83267 5.76088 35994 ft 409 kts 196°
2026-05-04 17:44 44.77693 5.74380 36008 ft 409 kts 196°
2026-05-04 17:45 44.72122 5.72676 36010 ft 410 kts 196°
2026-05-04 17:45 44.66568 5.70985 36043 ft 411 kts 195°
2026-05-04 17:46 44.60978 5.69287 36049 ft 410 kts 195°
2026-05-04 17:46 44.55398 5.67597 36048 ft 410 kts 195°
2026-05-04 17:47 44.49818 5.65903 36050 ft 410 kts 195°
2026-05-04 17:47 44.44234 5.64218 36039 ft 410 kts 195°
2026-05-04 17:48 44.38653 5.62511 36036 ft 409 kts 198°
2026-05-04 17:48 44.33347 5.59789 36034 ft 406 kts 204°
2026-05-04 17:49 44.28119 5.56924 36021 ft 406 kts 204°
2026-05-04 17:49 44.22858 5.54041 36025 ft 406 kts 204°
2026-05-04 17:50 44.17589 5.51164 36027 ft 406 kts 204°
2026-05-04 17:50 44.12313 5.48291 36030 ft 407 kts 204°
2026-05-04 17:51 44.07035 5.45425 36018 ft 407 kts 204°
2026-05-04 17:51 44.01754 5.42558 36027 ft 407 kts 204°
2026-05-04 17:52 43.96483 5.39702 36031 ft 407 kts 204°
2026-05-04 17:52 43.91233 5.36868 36024 ft 407 kts 204°
2026-05-04 17:53 43.85970 5.34023 36015 ft 406 kts 205°
2026-05-04 17:53 43.80717 5.31181 36029 ft 405 kts 204°
2026-05-04 17:54 43.75446 5.28336 36011 ft 405 kts 204°
2026-05-04 17:54 43.70202 5.25530 35983 ft 404 kts 205°
2026-05-04 17:55 43.64963 5.22724 35988 ft 403 kts 205°
2026-05-04 17:55 43.59759 5.19933 35988 ft 402 kts 205°
2026-05-04 17:56 43.54537 5.17143 35990 ft 402 kts 205°
2026-05-04 17:56 43.49306 5.14361 35982 ft 401 kts 205°
2026-05-04 17:57 43.44123 5.11592 35988 ft 401 kts 205°
2026-05-04 17:57 43.38957 5.08739 35988 ft 398 kts 210°
2026-05-04 17:58 43.34355 5.04659 35991 ft 394 kts 217°
2026-05-04 17:58 43.29827 5.00380 35974 ft 393 kts 217°
2026-05-04 17:59 43.25311 4.96126 35985 ft 393 kts 217°
2026-05-04 18:00 43.18566 4.89786 35995 ft 393 kts 216°
2026-05-04 18:00 43.14053 4.85565 35982 ft 393 kts 216°
2026-05-04 18:01 43.09539 4.81356 35971 ft 392 kts 216°
2026-05-04 18:01 43.05023 4.77238 35966 ft 393 kts 212°
2026-05-04 18:02 42.97852 4.71783 35953 ft 393 kts 212°
2026-05-04 18:02 42.93064 4.68160 35952 ft 393 kts 212°
2026-05-04 18:03 42.88285 4.64550 35946 ft 392 kts 212°
2026-05-04 18:03 42.83531 4.60955 35951 ft 392 kts 212°
2026-05-04 18:04 42.78770 4.57364 35970 ft 392 kts 212°